Weather History for PABI - February, 2014

Change the Weather History Date:

Wednesday, February 19, 2014

  Actual Average Record
Temperature  
Mean Temperature -4 °F -  
Max Temperature 9 °F 18 °F 46 °F (2009)
Min Temperature -17 °F 4 °F -34 °F (2013)
Degree Days  
Heating Degree Days 69    
Moisture  
Dew Point -11 °F    
Average Humidity 75    
Maximum Humidity 83    
Minimum Humidity 53    
Precipitation  
Precipitation 0.00 in - - ()
Sea Level Pressure  
Sea Level Pressure 29.72 in    
Wind  
Wind Speed 5 mph (WSW)    
Max Wind Speed 14 mph    
Max Gust Speed 22 mph    
Visibility 10 miles    
Events      
Averages and records for this station are not official NWS values.
T = Trace of Precipitation, MM = Missing Value Source: NWS Daily Summary

Daily Weather History Graph

Daily Weather History Graph

Search for Another Location

Airport or City:

Trip Planner

Search our weather history database for the weather conditions in past years. The results will help you decide how hot, cold, wet, or windy it might be!

Date:

Astronomy

Feb. 19, 2014 Rise Set
Actual Time 8:23 AM AKST 5:31 PM AKST
Civil Twilight 7:33 AM AKST 6:21 PM AKST
Nautical Twilight 6:38 AM AKST 7:16 PM AKST
Astronomical Twilight 5:43 AM AKST 8:11 PM AKST
Moon No Moon Rise 8:48 AM AKST (2/19)
Length of Visible Light 10h 47m
Length of Day
9h 07m
Waning Gibbous, 78% of the Moon is Illuminated
Feb 19
Waning Gibbous
Feb 22
Last Quarter
Feb 28
New
Mar 8
First Quarter
Mar 16
Full

Hourly Weather History & Observations

Time (AKST) Temp. Windchill Dew Point Humidity Pressure Visibility Wind Dir Wind Speed Gust Speed Precip Events Conditions
12:53 AM -6.0 °F - -11.0 °F 79% 29.59 in 10.0 mi Calm Calm - N/A   Clear
1:53 AM -4.0 °F - -8.0 °F 83% 29.58 in 10.0 mi Calm Calm - N/A   Clear
2:53 AM -6.0 °F -16.9 °F -11.0 °F 79% 29.59 in 10.0 mi SW 4.6 mph - N/A   Clear
3:53 AM -9.0 °F -18.2 °F -14.1 °F 79% 29.60 in 10.0 mi WSW 3.5 mph - N/A   Clear
4:53 AM -8.0 °F -19.2 °F -11.9 °F 83% 29.59 in 10.0 mi SW 4.6 mph - N/A   Clear
5:53 AM -9.9 °F -19.2 °F -14.1 °F 82% 29.60 in 10.0 mi SW 3.5 mph - N/A   Clear
6:53 AM -13.0 °F -22.7 °F -18.0 °F 78% 29.62 in 10.0 mi South 3.5 mph - N/A   Mostly Cloudy
7:53 AM -16.1 °F - -20.9 °F 79% 29.63 in 10.0 mi Calm Calm - N/A   Mostly Cloudy
8:53 AM -14.1 °F -23.9 °F -18.9 °F 79% 29.64 in 10.0 mi West 3.5 mph - N/A   Mostly Cloudy
9:53 AM -9.9 °F - -16.1 °F 74% 29.65 in 10.0 mi Calm Calm - N/A   Mostly Cloudy
10:53 AM 5.0 °F -11.6 °F -2.0 °F 73% 29.64 in 10.0 mi ESE 12.7 mph 21.9 mph N/A   Mostly Cloudy
11:53 AM 7.0 °F -7.5 °F -0.9 °F 70% 29.65 in 10.0 mi East 10.4 mph - N/A   Mostly Cloudy
12:53 PM 7.0 °F -9.8 °F -0.9 °F 70% 29.67 in 10.0 mi ESE 13.8 mph - N/A   Mostly Cloudy
1:53 PM 8.1 °F -8.4 °F -0.0 °F 70% 29.68 in 10.0 mi East 13.8 mph - N/A   Mostly Cloudy
2:53 PM 9.0 °F -4.2 °F -0.0 °F 67% 29.71 in 10.0 mi East 9.2 mph - N/A   Mostly Cloudy
3:53 PM 1.9 °F -11.8 °F -4.0 °F 76% 29.75 in 10.0 mi NW 8.1 mph - N/A   Mostly Cloudy
4:53 PM -0.9 °F -14.1 °F -7.1 °F 75% 29.78 in 10.0 mi WNW 6.9 mph - N/A   Mostly Cloudy
5:53 PM -4.0 °F -14.6 °F -9.0 °F 79% 29.82 in 10.0 mi West 4.6 mph - N/A   Mostly Cloudy
6:53 PM -5.1 °F -19.1 °F -9.9 °F 80% 29.86 in 10.0 mi West 6.9 mph - N/A   Mostly Cloudy
7:53 PM -7.1 °F -21.4 °F -11.9 °F 79% 29.89 in 10.0 mi West 6.9 mph - N/A   Mostly Cloudy
8:53 PM -8.0 °F -25.0 °F -14.1 °F 75% 29.92 in 10.0 mi West 9.2 mph - N/A   Mostly Cloudy
9:28 PM -9.0 °F -25.2 °F -14.1 °F 79% 29.74 in 10.0 mi West 8.1 mph - N/A   Mostly Cloudy
9:53 PM -9.0 °F -25.2 °F -14.1 °F 79% 29.94 in 10.0 mi West 8.1 mph - N/A   Mostly Cloudy
10:20 PM -9.0 °F -23.8 °F -15.0 °F 75% 29.76 in 10.0 mi West 6.9 mph - N/A   Scattered Clouds
10:53 PM -9.9 °F -24.9 °F -16.1 °F 74% 29.94 in 10.0 mi West 6.9 mph - N/A   Clear
11:53 PM -11.0 °F -24.6 °F -16.1 °F 78% 29.96 in 10.0 mi West 5.8 mph - N/A   Clear